Change the Weather History Date:

Thursday, August 28, 2014

  Actual Average Record
Temperature  
Mean Temperature 72 °F -  
Max Temperature 78 °F 79 °F 97 °F (1955)
Min Temperature 66 °F 56 °F 37 °F (1986)
Cooling Degree Days 7    
Growing Degree Days 22 (Base 50)    
Moisture  
Dew Point 69 °F    
Average Humidity 93    
Maximum Humidity 99    
Minimum Humidity 82    
Precipitation  
Precipitation 0.83 in - - ()
Sea Level Pressure  
Sea Level Pressure 29.98 in    
Wind  
Wind Speed 6 mph (SE)    
Max Wind Speed 13 mph    
Max Gust Speed 17 mph    
Visibility 8 miles    
Events Rain    
Averages and records for this station are not official NWS values.
T = Trace of Precipitation, MM = Missing Value Source: NWS Daily Summary

Daily Weather History Graph

Daily Weather History Graph

Search for Another Location

Airport or City:

Trip Planner

Search our weather history database for the weather conditions in past years. The results will help you decide how hot, cold, wet, or windy it might be!

Date:

Astronomy

Aug. 28, 2014 Rise Set
Actual Time 6:38 AM CDT 7:56 PM CDT
Civil Twilight 6:09 AM CDT 8:25 PM CDT
Nautical Twilight 5:34 AM CDT 8:59 PM CDT
Astronomical Twilight 4:58 AM CDT 9:36 PM CDT
Moon 9:34 AM CDT (8/28) 9:17 PM CDT (8/28)
Length of Visible Light 14h 15m
Length of Day
13h 18m
Waxing Crescent, 9% of the Moon is Illuminated
Aug 28
Waxing Crescent
Sep 2
First Quarter
Sep 8
Full
Sep 15
Last Quarter
Sep 24
New

Hourly Weather History & Observations

Time (CDT) Temp. Dew Point Humidity Pressure Visibility Wind Dir Wind Speed Gust Speed Precip Events Conditions
12:15 AM 69.3 °F 68.0 °F 96% 30.09 in 10.0 mi Calm Calm - N/A   Overcast
12:35 AM 69.3 °F 68.0 °F 96% 30.09 in 10.0 mi Calm Calm - N/A   Overcast
12:55 AM 69.3 °F 68.2 °F 96% 30.09 in 10.0 mi Calm Calm - N/A   Overcast
1:15 AM 68.9 °F 68.0 °F 97% 30.09 in 10.0 mi East 3.5 mph - N/A   Overcast
1:35 AM 68.9 °F 67.5 °F 95% 30.08 in 10.0 mi East 3.5 mph - N/A   Overcast
1:55 AM 68.7 °F 67.1 °F 95% 30.07 in 10.0 mi East 6.9 mph - N/A   Overcast
2:15 AM 68.7 °F 67.1 °F 95% 30.07 in 10.0 mi ESE 4.6 mph - N/A   Overcast
2:35 AM 68.5 °F 67.1 °F 95% 30.06 in 10.0 mi East 5.8 mph - N/A   Overcast
2:55 AM 68.4 °F 66.7 °F 95% 30.05 in 10.0 mi East 4.6 mph - N/A   Overcast
3:15 AM 68.4 °F 66.9 °F 95% 30.05 in 5.0 mi East 3.5 mph - 0.01 in Rain Rain
3:35 AM 68.0 °F 66.7 °F 96% 30.04 in 10.0 mi East 5.8 mph - 0.04 in Rain Light Rain
3:55 AM 67.8 °F 66.6 °F 96% 30.04 in 10.0 mi SE 4.6 mph - 0.05 in Rain Light Rain
4:15 AM 67.5 °F 66.6 °F 97% 30.04 in 4.0 mi ESE 5.8 mph - 0.06 in Rain Rain
4:35 AM 67.3 °F 66.4 °F 97% 30.04 in 7.0 mi SE 8.1 mph - 0.07 in Rain Light Rain
4:55 AM 67.3 °F 66.2 °F 96% 30.04 in 10.0 mi ESE 8.1 mph - 0.08 in   Overcast
5:15 AM 67.1 °F 66.0 °F 96% 30.03 in 10.0 mi ESE 6.9 mph - N/A Rain Light Rain
5:35 AM 67.1 °F 65.8 °F 96% 30.04 in 10.0 mi SSE 8.1 mph - N/A Rain Light Rain
5:55 AM 67.1 °F 66.2 °F 97% 30.05 in 7.0 mi SSE 8.1 mph - N/A Rain Light Rain
6:15 AM 67.1 °F 66.2 °F 97% 30.03 in 4.0 mi ESE 6.9 mph - 0.05 in Rain Rain
6:35 AM 66.7 °F 66.2 °F 98% 30.03 in 5.0 mi ESE 6.9 mph - 0.08 in Rain Light Rain
6:55 AM 66.6 °F 65.8 °F 98% 30.03 in 5.0 mi ESE 5.8 mph - 0.10 in Rain Light Rain
7:15 AM 66.4 °F 65.7 °F 98% 30.02 in 5.0 mi East 6.9 mph - 0.02 in Rain Light Rain
7:35 AM 66.2 °F 65.5 °F 98% 30.04 in 5.0 mi ESE 4.6 mph - 0.05 in Rain Light Rain
7:55 AM 66.2 °F 65.5 °F 98% 30.04 in 5.0 mi Calm Calm - 0.08 in Rain Light Rain
8:15 AM 66.2 °F 65.3 °F 97% 30.04 in 2.5 mi ESE 5.8 mph - 0.15 in Rain Heavy Rain
8:35 AM 66.2 °F 65.5 °F 98% 30.01 in 3.0 mi ESE 9.2 mph - 0.21 in Rain Rain
8:55 AM 66.6 °F 66.2 °F 99% 30.01 in 4.0 mi East 9.2 mph - 0.24 in Rain Rain
9:15 AM 66.4 °F 65.8 °F 98% 30.01 in 5.0 mi ESE 11.5 mph 16.1 mph 0.03 in Rain Heavy Rain
9:55 AM 66.2 °F 65.3 °F 97% 30.01 in 7.0 mi ESE 10.4 mph - 0.08 in Rain Light Rain
10:15 AM 66.2 °F 65.5 °F 98% 30.02 in 3.0 mi ESE 8.1 mph - 0.06 in Rain Rain
10:35 AM 66.4 °F 65.7 °F 98% 30.02 in 7.0 mi SE 9.2 mph - 0.07 in   Overcast
10:55 AM 67.1 °F 66.4 °F 98% 30.01 in 7.0 mi SE 9.2 mph - 0.07 in   Overcast
11:15 AM 67.6 °F 66.9 °F 98% 30.00 in 10.0 mi SE 6.9 mph - N/A   Overcast
11:35 AM 68.2 °F 67.3 °F 97% 29.99 in 10.0 mi SE 10.4 mph - N/A   Overcast
11:55 AM 69.1 °F 67.8 °F 96% 29.98 in 10.0 mi SSE 10.4 mph - N/A   Overcast
12:15 PM 72.1 °F 69.3 °F 91% 29.98 in 10.0 mi SE 12.7 mph 16.1 mph N/A   Overcast
12:35 PM 71.1 °F 68.5 °F 92% 29.97 in 10.0 mi SE 10.4 mph - N/A   Overcast
12:55 PM 71.8 °F 68.9 °F 91% 29.96 in 10.0 mi SE 11.5 mph 17.3 mph N/A   Overcast
1:15 PM 72.7 °F 69.3 °F 89% 29.96 in 10.0 mi SSE 11.5 mph - N/A   Overcast
1:35 PM 73.0 °F 69.4 °F 88% 29.96 in 10.0 mi SE 9.2 mph - N/A   Overcast
1:55 PM 73.6 °F 70.0 °F 88% 29.94 in 10.0 mi SE 10.4 mph - N/A   Overcast
2:15 PM 74.7 °F 70.0 °F 85% 29.94 in 10.0 mi SE 11.5 mph - N/A   Overcast
2:35 PM 73.9 °F 69.8 °F 87% 29.94 in 10.0 mi SE 11.5 mph - N/A   Overcast
2:55 PM 74.8 °F 70.7 °F 87% 29.93 in 10.0 mi SSE 10.4 mph - N/A   Overcast
3:15 PM 76.1 °F 71.2 °F 85% 29.93 in 10.0 mi SSE 11.5 mph - N/A   Overcast
3:35 PM 75.6 °F 70.9 °F 85% 29.93 in 10.0 mi SSE 9.2 mph - N/A   Overcast
3:55 PM 75.2 °F 71.1 °F 87% 29.93 in 10.0 mi SSE 8.1 mph - N/A   Overcast
4:15 PM 76.1 °F 71.4 °F 85% 29.93 in 10.0 mi South 8.1 mph - N/A   Overcast
4:35 PM 76.6 °F 71.8 °F 85% 29.92 in 10.0 mi SSE 8.1 mph - N/A   Mostly Cloudy
4:55 PM 77.5 °F 72.3 °F 84% 29.91 in 10.0 mi SSE 9.2 mph - N/A   Scattered Clouds
5:15 PM 78.4 °F 72.5 °F 82% 29.90 in 10.0 mi SSE 8.1 mph - N/A   Scattered Clouds
5:35 PM 77.5 °F 72.0 °F 83% 29.91 in 10.0 mi SSE 6.9 mph - N/A   Mostly Cloudy
5:55 PM 77.4 °F 72.7 °F 85% 29.90 in 10.0 mi SE 5.8 mph - N/A   Mostly Cloudy
6:15 PM 78.6 °F 73.0 °F 83% 29.90 in 10.0 mi SE 5.8 mph - N/A   Scattered Clouds
6:35 PM 78.1 °F 72.5 °F 83% 29.90 in 10.0 mi SE 4.6 mph - N/A   Scattered Clouds
6:55 PM 76.8 °F 72.9 °F 88% 29.89 in 10.0 mi SE 3.5 mph - N/A   Scattered Clouds
7:15 PM 75.7 °F 72.9 °F 91% 29.89 in 7.0 mi SE 4.6 mph - N/A   Scattered Clouds
7:35 PM 75.2 °F 72.5 °F 91% 29.88 in 7.0 mi ESE 4.6 mph - N/A   Clear
7:55 PM 74.5 °F 72.5 °F 94% 29.87 in 5.0 mi East 4.6 mph - N/A   Clear
8:15 PM 74.1 °F 72.5 °F 95% 29.87 in 7.0 mi ESE 4.6 mph - N/A   Clear
8:35 PM 73.9 °F 72.5 °F 95% 29.90 in 7.0 mi SE 5.8 mph - N/A   Mostly Cloudy
8:55 PM 73.8 °F 72.5 °F 96% 29.90 in 7.0 mi SE 5.8 mph - N/A   Mostly Cloudy
9:15 PM 72.3 °F 70.2 °F 93% 29.91 in 10.0 mi South 8.1 mph - 0.01 in Rain Light Rain
9:35 PM 70.2 °F 68.2 °F 93% 29.90 in 10.0 mi SE 9.2 mph - 0.02 in Rain Light Rain
9:55 PM 69.3 °F 67.5 °F 94% 29.89 in 10.0 mi Calm Calm - 0.02 in Rain Light Rain
10:15 PM 69.4 °F 67.5 °F 93% 29.90 in 10.0 mi Calm Calm - 0.01 in Rain Light Rain
10:35 PM 69.3 °F 67.1 °F 93% 29.91 in 10.0 mi SSE 9.2 mph - 0.02 in   Drizzle
10:55 PM - - N/A% 29.91 in - SSE 3.5 mph - N/A   Unknown
11:15 PM 69.3 °F 68.2 °F 96% 29.91 in 5.0 mi SSE 8.1 mph - 0.03 in Rain Rain
11:35 PM 69.1 °F 68.2 °F 97% 29.91 in 7.0 mi SE 8.1 mph - 0.05 in Rain Rain
11:55 PM 68.5 °F 67.6 °F 97% 29.93 in 7.0 mi South 10.4 mph - 0.09 in Rain Rain